Regional Weather Roundup
Issued by NWS

Home | Current Version | Previous Version | Graphics & Text | Print | Product List | Glossary On
Versions: 1 2 3 4 5 6 7 8 9 10 11 12 13 14 15 16 17 18 19 20 21 22 23 24 25 26 27 28 29 30 31 32 33 34 35 36 37 38 39 40 41 42 43 44 45 46 47 48 49 50
000
ASUS43 KBIS 210010
RWRND

NORTH DAKOTA REGIONAL WEATHER ROUNDUP
NATIONAL WEATHER SERVICE BISMARCK ND
700 PM CDT WED AUG 20 2014

NOTE: "FAIR" INDICATES FEW OR NO CLOUDS BELOW 12,000 FEET WITH NO
SIGNIFICANT WEATHER AND/OR OBSTRUCTIONS TO VISIBILITY.


NDZ001>003-009>011-017-210100-
NORTHWEST NORTH DAKOTA

CITY           SKY/WX    TMP DP  RH WIND       PRES   REMARKS
WILLISTON      CLOUDY    71  64  78 SE6       29.74S
6HR MIN TEMP:  69; 6HR MAX TEMP:  79; 6HR PCP:  0.12;

MINOT          TSTM      72  66  81 S23G30    29.75R
$$

NDZ018>021-031>035-040>046-210100-
SOUTHWEST NORTH DAKOTA

CITY           SKY/WX    TMP DP  RH WIND       PRES   REMARKS
BISMARCK       TSTM      72  68  87 NE13      29.73R
6HR MIN TEMP:  72; 6HR MAX TEMP:  85; 6HR PCP:  0.14;

DICKINSON      CLOUDY    71  63  75 N8        29.75S
GARRISON         N/A     70  69  97 CALM      29.73F
6HR MIN TEMP:  70; 6HR MAX TEMP:  78; 6HR PCP:  0.04;

HETTINGER ARPT CLOUDY    69  64  84 N14       29.77S
$$

NDZ004>008-012>016-024-026-027-054-210100-
NORTHEAST NORTH DAKOTA

CITY           SKY/WX    TMP DP  RH WIND       PRES   REMARKS
GRAND FORKS    PTSUNNY   82  67  60 SE9       29.77S
GRND FRKS AFB  PTSUNNY   80  69  69 SE10      29.78F
DEVILS LAKE    CLOUDY    79  64  61 SE14      29.76F
$$

NDZ022-023-025-028>030-036>039-047>053-210100-
SOUTHEAST NORTH DAKOTA

CITY           SKY/WX    TMP DP  RH WIND       PRES   REMARKS
FARGO          CLOUDY    81  67  62 SE12      29.76F
6HR MIN TEMP:  81; 6HR MAX TEMP:  85;

JAMESTOWN      CLOUDY    78  68  71 E9        29.75R
$$




USA.gov is the U.S. government's official web portal to all federal, state and local government web resources and services.